Time,TemperatureF,DewpointF,PressureIn,WindDirection,WindDirectionDegrees,WindSpeedMPH,WindSpeedGustMPH,Humidity,HourlyPrecipIn,Conditions,Clouds,dailyrainin,SoftwareType,DateUTC
2013-08-30 00:04:00,77.0,77.0,29.92,North,0,0.0,-999.0,100,-99.99,,,-99.99,,2013-08-30 05:04:00,
2013-08-30 00:12:00,77.0,77.0,29.92,North,0,0.0,-999.0,100,-99.99,,,-99.99,,2013-08-30 05:12:00,
2013-08-30 00:23:00,77.0,77.0,29.92,North,0,0.0,-999.0,100,-99.99,,,-99.99,,2013-08-30 05:23:00,
2013-08-30 00:42:00,77.0,77.0,29.92,North,0,0.0,-999.0,100,-99.99,,,-99.99,,2013-08-30 05:42:00,
2013-08-30 00:52:00,75.0,75.0,29.92,North,0,0.0,-999.0,100,-99.99,,,-99.99,,2013-08-30 05:52:00,
2013-08-30 01:02:00,75.0,75.0,29.92,North,0,0.0,-999.0,100,-99.99,,,-99.99,,2013-08-30 06:02:00,
2013-08-30 01:12:00,75.0,75.0,29.92,North,0,0.0,-999.0,100,-99.99,,,-99.99,,2013-08-30 06:12:00,
2013-08-30 01:22:00,75.0,75.0,29.92,North,0,0.0,-999.0,100,-99.99,,,-99.99,,2013-08-30 06:22:00,
2013-08-30 01:42:00,77.0,77.0,29.92,North,0,0.0,-999.0,100,-99.99,,,-99.99,,2013-08-30 06:42:00,
2013-08-30 02:21:00,79.0,79.0,29.92,North,0,0.0,-999.0,100,-99.99,,,-99.99,,2013-08-30 07:21:00,
2013-08-30 02:43:00,77.0,77.0,29.92,North,0,0.0,-999.0,100,-99.99,,,-99.99,,2013-08-30 07:43:00,
2013-08-30 03:22:00,77.0,77.0,29.91,North,0,0.0,-999.0,100,-99.99,,,-99.99,,2013-08-30 08:22:00,
2013-08-30 03:42:00,75.0,75.0,29.93,North,0,0.0,-999.0,100,-99.99,,,-99.99,,2013-08-30 08:42:00,
2013-08-30 04:22:00,75.0,75.0,29.92,North,0,0.0,-999.0,100,-99.99,,,-99.99,,2013-08-30 09:22:00,
2013-08-30 04:44:00,75.0,75.0,29.91,North,0,0.0,-999.0,100,-99.99,,,-99.99,,2013-08-30 09:44:00,
2013-08-30 05:23:00,75.0,75.0,29.92,South,170,5.0,-999.0,100,-99.99,,,-99.99,,2013-08-30 10:23:00,
2013-08-30 05:43:00,75.0,75.0,29.92,North,360,7.0,-999.0,100,-99.99,,,-99.99,,2013-08-30 10:43:00,
2013-08-30 06:22:00,75.0,75.0,29.92,North,10,12.0,16.0,100,-99.99,,,-99.99,,2013-08-30 11:22:00,
2013-08-30 06:42:00,75.0,75.0,29.92,North,10,10.0,-999.0,100,-99.99,,,-99.99,,2013-08-30 11:42:00,
2013-08-30 06:52:00,73.0,73.0,29.93,North,10,10.0,16.0,100,-99.99,,,-99.99,,2013-08-30 11:52:00,
2013-08-30 07:01:00,73.0,73.0,29.93,North,10,10.0,16.0,100,-99.99,,,-99.99,,2013-08-30 12:01:00,
2013-08-30 07:21:00,73.0,73.0,29.94,North,10,12.0,-999.0,100,-99.99,,,-99.99,,2013-08-30 12:21:00,
2013-08-30 07:42:00,73.0,73.0,29.95,North,350,9.0,-999.0,100,-99.99,,,-99.99,,2013-08-30 12:42:00,
2013-08-30 08:21:00,73.0,73.0,29.95,North,350,9.0,-999.0,100,-99.99,,,-99.99,,2013-08-30 13:21:00,
2013-08-30 08:42:00,73.0,73.0,29.96,North,350,12.0,-999.0,100,-99.99,,,-99.99,,2013-08-30 13:42:00,
2013-08-30 09:21:00,75.0,73.0,29.96,North,350,10.0,15.0,94,-99.99,,,-99.99,,2013-08-30 14:21:00,
2013-08-30 09:42:00,75.0,73.0,29.97,North,350,8.0,-999.0,94,-99.99,,,-99.99,,2013-08-30 14:42:00,
2013-08-30 10:22:00,77.0,73.0,29.97,North,350,12.0,-999.0,88,-99.99,,,-99.99,,2013-08-30 15:22:00,
2013-08-30 10:43:00,79.0,73.0,29.98,North,350,9.0,-999.0,83,-99.99,,,-99.99,,2013-08-30 15:43:00,
2013-08-30 11:25:00,81.0,75.0,29.98,North,350,9.0,-999.0,83,-99.99,,,-99.99,,2013-08-30 16:25:00,
2013-08-30 11:43:00,81.0,75.0,29.98,North,350,9.0,-999.0,83,-99.99,,,-99.99,,2013-08-30 16:43:00,
2013-08-30 12:23:00,82.0,73.0,29.98,North,360,9.0,-999.0,74,-99.99,,,-99.99,,2013-08-30 17:23:00,
2013-08-30 12:42:00,82.0,73.0,29.98,South,170,9.0,-999.0,74,-99.99,,,-99.99,,2013-08-30 17:42:00,
2013-08-30 13:22:00,84.0,73.0,29.97,North,360,9.0,-999.0,70,-99.99,,,-99.99,,2013-08-30 18:22:00,
2013-08-30 13:42:00,84.0,73.0,29.97,NNE,20,7.0,-999.0,70,-99.99,,,-99.99,,2013-08-30 18:42:00,
2013-08-30 14:22:00,84.0,73.0,29.97,North,350,14.0,-999.0,70,-99.99,,,-99.99,,2013-08-30 19:22:00,
2013-08-30 14:42:00,84.0,73.0,29.97,NNE,30,7.0,-999.0,70,-99.99,,,-99.99,,2013-08-30 19:42:00,
2013-08-30 15:22:00,84.0,73.0,29.97,WNW,290,7.0,-999.0,70,-99.99,,,-99.99,,2013-08-30 20:22:00,
2013-08-30 15:43:00,84.0,75.0,29.96,North,-99,5.0,-999.0,74,-99.99,,,-99.99,,2013-08-30 20:43:00,
2013-08-30 16:22:00,86.0,75.0,29.95,North,350,9.0,-999.0,70,-99.99,,,-99.99,,2013-08-30 21:22:00,
2013-08-30 16:44:00,86.0,75.0,29.94,North,350,7.0,-999.0,70,-99.99,,,-99.99,,2013-08-30 21:44:00,
2013-08-30 17:24:00,86.0,75.0,29.94,North,10,8.0,-999.0,70,-99.99,,,-99.99,,2013-08-30 22:24:00,
2013-08-30 17:43:00,84.0,75.0,29.94,North,360,6.0,-999.0,74,-99.99,,,-99.99,,2013-08-30 22:43:00,
2013-08-30 18:22:00,84.0,73.0,29.93,North,350,8.0,-999.0,70,-99.99,,,-99.99,,2013-08-30 23:22:00,
2013-08-30 18:42:00,84.0,72.0,29.93,NNE,20,7.0,-999.0,65,-99.99,,,-99.99,,2013-08-30 23:42:00,
2013-08-30 19:22:00,82.0,72.0,29.93,NE,40,6.0,-999.0,69,-99.99,,,-99.99,,2013-08-31 00:22:00,
2013-08-30 19:42:00,81.0,72.0,29.93,NE,40,5.0,-999.0,74,-99.99,,,-99.99,,2013-08-31 00:42:00,
2013-08-30 19:52:00,81.0,72.0,29.92,North,0,0.0,-999.0,74,-99.99,,,-99.99,,2013-08-31 00:52:00,
2013-08-30 20:01:00,81.0,72.0,29.92,North,0,0.0,-999.0,74,-99.99,,,-99.99,,2013-08-31 01:01:00,
2013-08-30 20:22:00,79.0,73.0,29.91,North,0,0.0,-999.0,83,-99.99,,,-99.99,,2013-08-31 01:22:00,
2013-08-30 20:42:00,77.0,72.0,29.91,North,0,0.0,-999.0,83,-99.99,,,-99.99,,2013-08-31 01:42:00,
2013-08-30 21:22:00,75.0,72.0,29.92,North,0,0.0,-999.0,88,-99.99,,,-99.99,,2013-08-31 02:22:00,
2013-08-30 21:42:00,75.0,72.0,29.93,North,0,0.0,-999.0,88,-99.99,,,-99.99,,2013-08-31 02:42:00,
2013-08-30 22:22:00,73.0,72.0,29.93,North,0,0.0,-999.0,94,-99.99,,,-99.99,,2013-08-31 03:22:00,
2013-08-30 22:44:00,73.0,72.0,29.93,North,0,0.0,-999.0,94,-99.99,,,-99.99,,2013-08-31 03:44:00,
2013-08-30 23:24:00,72.0,72.0,29.93,North,0,0.0,-999.0,100,-99.99,,,-99.99,,2013-08-31 04:24:00,
2013-08-30 23:44:00,72.0,72.0,29.94,North,0,0.0,-999.0,100,-99.99,,,-99.99,,2013-08-31 04:44:00,